| time (UTC) | temp F | wind direction | speed MPH | gust MPH | rain 1hr in | rain 24hr in | rain mn in | humidity % | barometer mb |
| 20260901131611 | 80 | 198 | 1.0 | 3.0 | 0.00 | 0.00 | 0.00 | 38 | 1023.3 |
| 20260901130108 | 79 | 9 | 0.0 | 5.0 | 0.00 | 0.00 | 0.00 | 36 | 1023.2 |
| 20260901124559 | 79 | 148 | 1.0 | 3.0 | 0.00 | 0.00 | 0.00 | 35 | 1023.3 |
| 20260901123055 | 78 | 145 | 0.0 | 4.0 | 0.00 | 0.00 | 0.00 | 40 | 1023.4 |
| 20260901121558 | 78 | 178 | 1.0 | 6.0 | 0.00 | 0.00 | 0.00 | 40 | 1023.4 |
| 20260901120104 | 77 | 148 | 2.0 | 6.0 | 0.00 | 0.00 | 0.00 | 38 | 1023.5 |
| 20260901114600 | 76 | 211 | 3.0 | 6.0 | 0.00 | 0.00 | 0.00 | 42 | 1023.5 |
| 20260901113050 | 76 | 205 | 3.0 | 6.0 | 0.00 | 0.00 | 0.00 | 44 | 1023.9 |
| 20260901111552 | 76 | 178 | 1.0 | 4.0 | 0.00 | 0.00 | 0.00 | 41 | 1024.4 |
| 20260901110059 | 75 | 182 | 0.0 | 4.0 | 0.00 | 0.00 | 0.00 | 45 | 1024.9 |
| 20260901104553 | 73 | 242 | 1.0 | 3.0 | 0.00 | 0.00 | 0.00 | 43 | 1025.2 |
| 20260901103052 | 73 | 206 | 0.0 | 4.0 | 0.00 | 0.00 | 0.00 | 42 | 1025.4 |
| 20260901101559 | 72 | 110 | 0.0 | 2.0 | 0.00 | 0.00 | 0.00 | 46 | 1025.7 |
| 20260901100103 | 71 | 153 | 1.0 | 4.0 | 0.00 | 0.00 | 0.00 | 45 | 1026.3 |
| 20260901094546 | 71 | 0 | 1.0 | 4.0 | 0.00 | 0.00 | 0.00 | 46 | 1026.6 |
| 20260901093124 | 70 | 132 | 1.0 | 2.0 | 0.00 | 0.00 | 0.00 | 48 | 1026.8 |
| 20260901091600 | 68 | 160 | 1.0 | 3.0 | 0.00 | 0.00 | 0.00 | 54 | 1027.0 |
| 20260901090056 | 67 | 165 | 1.0 | 2.0 | 0.00 | 0.00 | 0.00 | 54 | 1027.2 |
| 20260901084557 | 66 | 200 | 1.0 | 2.0 | 0.00 | 0.00 | 0.00 | 57 | 1027.4 |
| 20260901083059 | 64 | 178 | 0.0 | 2.0 | 0.00 | 0.00 | 0.00 | 58 | 1027.7 |
| 20260901081610 | 63 | 190 | 1.0 | 3.0 | 0.00 | 0.00 | 0.00 | 60 | 1027.9 |
| 20260901080100 | 63 | 159 | 0.0 | 2.0 | 0.00 | 0.00 | 0.00 | 61 | 1028.0 |
| 20260901074551 | 60 | 188 | 0.0 | 4.0 | 0.00 | 0.00 | 0.00 | 64 | 1028.2 |
| 20260901073050 | 58 | 34 | 1.0 | 4.0 | 0.00 | 0.00 | 0.00 | 67 | 1028.3 |
| 20260901071603 | 55 | 350 | 2.0 | 3.0 | 0.00 | 0.00 | 0.00 | 71 | 1028.5 |
| 20260901070055 | 53 | 9 | 1.0 | 3.0 | 0.00 | 0.00 | 0.00 | 74 | 1028.5 |
| 20260901064551 | 51 | 351 | 2.0 | 3.0 | 0.00 | 0.00 | 0.00 | 79 | 1028.5 |
| 20260901063045 | 48 | 360 | 1.0 | 5.0 | 0.00 | 0.00 | 0.00 | 82 | 1028.4 |
| 20260901061548 | 45 | 360 | 2.0 | 5.0 | 0.00 | 0.00 | 0.00 | 85 | 1028.6 |
| 20260901060055 | 43 | 349 | 4.0 | 8.0 | 0.00 | 0.00 | 0.00 | 86 | 1028.4 |
| 20260901054550 | 42 | 360 | 3.0 | 8.0 | 0.00 | 0.00 | 0.00 | 87 | 1028.4 |
| 20260901053105 | 41 | 9 | 1.0 | 4.0 | 0.00 | 0.00 | 0.00 | 88 | 1028.2 |
| 20260901051555 | 40 | 0 | 0.0 | 4.0 | 0.00 | 0.00 | 0.00 | 87 | 1028.3 |
| 20260901050052 | 40 | 15 | 2.0 | 5.0 | 0.00 | 0.00 | 0.00 | 87 | 1028.2 |
| 20260901044552 | 41 | 12 | 3.0 | 3.0 | 0.00 | 0.00 | 0.00 | 88 | 1028.2 |
| 20260901043120 | 40 | 352 | 2.0 | 5.0 | 0.00 | 0.00 | 0.00 | 89 | 1028.0 |
| 20260901041609 | 40 | 360 | 2.0 | 5.0 | 0.00 | 0.00 | 0.00 | 88 | 1028.1 |
| 20260901034601 | 42 | 360 | 4.0 | 6.0 | 0.00 | 0.00 | 0.00 | 87 | 1027.8 |
| 20260901033103 | 42 | 352 | 0.0 | 3.0 | 0.00 | 0.00 | 0.00 | 87 | 1027.8 |
| 20260901031556 | 42 | 0 | 0.0 | 2.0 | 0.00 | 0.00 | 0.00 | 88 | 1027.6 |
| 20260901030050 | 41 | 315 | 2.0 | 8.0 | 0.00 | 0.00 | 0.00 | 87 | 1027.6 |
| 20260901024553 | 41 | 348 | 3.0 | 6.0 | 0.00 | 0.00 | 0.00 | 88 | 1027.4 |
| 20260901023059 | 42 | 0 | 0.0 | 2.0 | 0.00 | 0.00 | 0.00 | 87 | 1027.1 |
| 20260901021558 | 42 | 0 | 0.0 | 3.0 | 0.00 | 0.00 | 0.00 | 87 | 1027.1 |
| 20260901020055 | 42 | 347 | 1.0 | 3.0 | 0.00 | 0.00 | 0.00 | 88 | 1027.0 |
| 20260901014550 | 42 | 352 | 1.0 | 4.0 | 0.00 | 0.00 | 0.00 | 86 | 1027.1 |
| 20260901013054 | 43 | 339 | 2.0 | 8.0 | 0.00 | 0.00 | 0.00 | 85 | 1027.2 |
| 20260901011554 | 44 | 288 | 0.0 | 2.0 | 0.00 | 0.00 | 0.00 | 84 | 1027.2 |
| 20260901010100 | 45 | 0 | 0.0 | 2.0 | 0.00 | 0.00 | 0.00 | 84 | 1027.2 |
| 20260901004552 | 45 | 346 | 0.0 | 4.0 | 0.00 | 0.00 | 0.00 | 85 | 1027.4 |
| 20260901003102 | 45 | 9 | 3.0 | 4.0 | 0.00 | 0.00 | 0.00 | 84 | 1027.4 |
| 20260901001545 | 45 | 339 | 3.0 | 9.0 | 0.00 | 0.00 | 0.00 | 83 | 1027.3 |
| 20260901000055 | 46 | 337 | 1.0 | 2.0 | 0.00 | 0.00 | 0.00 | 81 | 1027.5 |
| 20260831234549 | 47 | 306 | 0.0 | 2.0 | 0.00 | 0.00 | 0.00 | 81 | 1027.6 |
| 20260831233047 | 47 | 0 | 0.0 | 4.0 | 0.00 | 0.00 | 0.00 | 81 | 1027.8 |
| 20260831231556 | 47 | 9 | 2.0 | 5.0 | 0.00 | 0.00 | 0.00 | 82 | 1027.8 |
| 20260831224550 | 48 | 323 | 3.0 | 5.0 | 0.00 | 0.00 | 0.00 | 79 | 1028.1 |
| 20260831223059 | 50 | 187 | 0.0 | 3.0 | 0.00 | 0.00 | 0.00 | 77 | 1028.1 |
| 20260831221602 | 51 | 229 | 2.0 | 5.0 | 0.00 | 0.00 | 0.00 | 77 | 1028.3 |
| 20260831220119 | 49 | 309 | 0.0 | 2.0 | 0.00 | 0.00 | 0.00 | 79 | 1028.2 |
| 20260831214548 | 49 | 28 | 2.0 | 4.0 | 0.00 | 0.00 | 0.00 | 77 | 1028.3 |
| 20260831213105 | 51 | 9 | 2.0 | 5.0 | 0.00 | 0.00 | 0.00 | 76 | 1028.4 |
| 20260831211554 | 54 | 348 | 4.0 | 8.0 | 0.00 | 0.00 | 0.00 | 69 | 1028.4 |
| 20260831210100 | 55 | 306 | 1.0 | 9.0 | 0.00 | 0.00 | 0.00 | 67 | 1028.7 |
| 20260831204555 | 56 | 9 | 2.0 | 10.0 | 0.00 | 0.00 | 0.00 | 66 | 1028.8 |
| 20260831203123 | 56 | 306 | 4.0 | 9.0 | 0.00 | 0.00 | 0.00 | 66 | 1028.8 |
| 20260831201547 | 52 | 325 | 1.0 | 10.0 | 0.00 | 0.00 | 0.00 | 74 | 1028.8 |
| 20260831200056 | 52 | 0 | 0.0 | 9.0 | 0.00 | 0.00 | 0.00 | 73 | 1028.7 |
| 20260831194549 | 53 | 335 | 3.0 | 6.0 | 0.00 | 0.00 | 0.00 | 72 | 1028.9 |
| 20260831193048 | 52 | 350 | 3.0 | 5.0 | 0.00 | 0.00 | 0.00 | 72 | 1028.8 |
| 20260831191553 | 53 | 342 | 5.0 | 8.0 | 0.00 | 0.00 | 0.00 | 70 | 1028.8 |
| 20260831190132 | 54 | 13 | 0.0 | 0.0 | 0.00 | 0.00 | 0.00 | 70 | 1028.9 |
| 20260831184551 | 56 | 0 | 0.0 | 2.0 | 0.00 | 0.00 | 0.00 | 68 | 1028.9 |
| 20260831183058 | 56 | 191 | 0.0 | 2.0 | 0.00 | 0.00 | 0.00 | 67 | 1028.8 |
| 20260831181554 | 57 | 0 | 0.0 | 2.0 | 0.00 | 0.00 | 0.00 | 64 | 1028.5 |
| 20260831180054 | 57 | 190 | 0.0 | 2.0 | 0.00 | 0.00 | 0.00 | 63 | 1028.5 |
| 20260831174551 | 58 | 172 | 1.0 | 3.0 | 0.00 | 0.00 | 0.00 | 62 | 1028.4 |
| 20260831173046 | 57 | 168 | 0.0 | 2.0 | 0.00 | 0.00 | 0.00 | 63 | 1028.1 |
| 20260831171603 | 58 | 0 | 0.0 | 2.0 | 0.00 | 0.00 | 0.00 | 62 | 1027.8 |
| 20260831170052 | 59 | 0 | 0.0 | 2.0 | 0.00 | 0.00 | 0.00 | 60 | 1027.7 |
| 20260831164549 | 60 | 96 | 0.0 | 3.0 | 0.00 | 0.00 | 0.00 | 58 | 1027.6 |
| 20260831163054 | 60 | 79 | 1.0 | 2.0 | 0.00 | 0.00 | 0.00 | 59 | 1027.3 |
| 20260831161603 | 62 | 0 | 0.0 | 0.0 | 0.00 | 0.00 | 0.00 | 57 | 1027.2 |
| 20260831160117 | 63 | 169 | 0.0 | 2.0 | 0.00 | 0.00 | 0.00 | 52 | 1027.1 |
| 20260831154618 | 65 | 0 | 0.0 | 2.0 | 0.00 | 0.00 | 0.00 | 52 | 1027.0 |
| 20260831153129 | 66 | 0 | 0.0 | 2.0 | 0.00 | 0.00 | 0.00 | 47 | 1027.0 |
| 20260831151558 | 68 | 202 | 1.0 | 3.0 | 0.00 | 0.00 | 0.00 | 47 | 1027.0 |
| 20260831150053 | 69 | 199 | 0.0 | 4.0 | 0.00 | 0.00 | 0.00 | 47 | 1026.9 |
| 20260831144549 | 68 | 206 | 1.0 | 5.0 | 0.00 | 0.00 | 0.00 | 49 | 1026.8 |
| 20260831143056 | 69 | 202 | 2.0 | 6.0 | 0.00 | 0.00 | 0.00 | 48 | 1026.8 |
| 20260831141557 | 69 | 177 | 2.0 | 6.0 | 0.00 | 0.00 | 0.00 | 49 | 1026.7 |
| 20260831140052 | 69 | 215 | 2.0 | 6.0 | 0.00 | 0.00 | 0.00 | 48 | 1026.6 |
| 20260831134548 | 69 | 190 | 2.0 | 7.0 | 0.00 | 0.00 | 0.00 | 49 | 1026.5 |
| 20260831133047 | 69 | 227 | 3.0 | 6.0 | 0.00 | 0.00 | 0.00 | 48 | 1026.4 |